Regional Weather Roundup
Issued by NWS Sterling, VA

Home | Current Version | Previous Version | Graphics & Text | Print | Product List | Glossary On
Versions: 1 2 3 4 5 6 7 8 9 10 11 12 13 14 15 16 17 18 19 20 21 22 23 24 25 26 27 28 29 30 31 32 33 34 35 36 37 38 39 40 41 42 43 44 45 46 47 48 49 50
000
ASUS41 KLWX 252310
RWRLWX

REGIONAL WEATHER ROUNDUP
NATIONAL WEATHER SERVICE BALTIMORE MD/WASHINGTON DC
600 PM EST TUE NOV 25 2014

Note: "FAIR" indicates few or no clouds below 12,000 feet
with no significant weather and/or obstructions to visibility.
 TC=TEMPERATURE CELSIUS

 * =Non NWS site. Station does not report precipitation (e.g. rain,
    snow, etc.), thunder, or fog.

DCZ001-MDZ009-015-VAZ040>042-051-053>054-260000-
WASHINGTON METRO

CITY           SKY/WX    TMP DP  RH WIND       PRES   REMARKS
WASHINGTON NAT CLOUDY    53  34  48 S7        30.09R
DULLES         MOCLDY    46  35  65 CALM      30.08R
ANDREWS AFB    CLOUDY    48  35  58 S2        30.08R
FT BELVOIR     CLOUDY    48  36  62 CALM      30.10R
QUANTICO       CLOUDY    51  36  56 W3        30.10R
COLLEGE PARK*  CLOUDY    46  36  66 CALM      30.07S
LEESBURG*      PTCLDY    48  34  57 MISG      30.09R
MANASSAS*      CLEAR     46  41  81 CALM      30.08R
GAITHERSBURG*  PTCLDY    46  28  49 CALM      30.12R

$$

MDZ006>007-011-014-260000-
BALTIMORE METRO

CITY           SKY/WX    TMP DP  RH WIND       PRES   REMARKS
BWI AIRPORT    MOCLDY    48  30  49 CALM      30.07R
MD SCIENCE CTR   N/A     53  30  41 MISG      30.08R
MARTIN STATE   MOCLDY    48  36  61 CALM      30.09
ANNAPOLIS      MOCLDY    49  39  68 SE3       30.08R
FORT MEADE*    MOCLDY    43  32  65 CALM      30.09S

$$

MDZ012-015-019>023-260000-
MARYLAND EASTERN SHORE

CITY           SKY/WX    TMP DP  RH WIND       PRES   REMARKS
OCEAN CITY     CLOUDY    52  38  58 NE3       30.10R
SALISBURY      MOCLDY   N/A N/A N/A CALM      30.09R
BAY BRIDGE AP*   N/A     46  36  66 SE3       30.09R
CAMBRIDGE*     CLOUDY    52  41  66 CALM      30.08S
EASTON*        MOCLDY    50  37  62 CALM      30.12R

$$

MDZ017>025-260000-
SOUTHERN MARYLAND

CITY           SKY/WX    TMP DP  RH WIND       PRES   REMARKS
PATUXENT RIVER CLOUDY    49  40  71 SE3       30.08S
ST INIGOES     CLOUDY    51  38  60 CALM      30.08R
LEONARDTOWN*   CLOUDY    48  36  61 CALM      30.10R

$$

MDZ003>005-260000-
NORTH CENTRAL MARYLAND

CITY           SKY/WX    TMP DP  RH WIND       PRES   REMARKS
FREDERICK*     CLEAR     46  30  53 CALM      30.10R
HAGERSTOWN APT CLEAR     48  27  44 CALM      30.07R
WESTMINSTER*   PTCLDY    48  25  40 NW3       30.06R

$$

MDZ501>502-260000-
WESTERN MARYLAND

CITY           SKY/WX    TMP DP  RH WIND       PRES   REMARKS
OAKLAND*       CLEAR     37  21  52 W5        30.05R
CUMBERLAND*    CLEAR     52  27  37 W7G18     30.11R

$$

VAZ025>031-260000-
SHENANDOAH VALLEY

CITY           SKY/WX    TMP DP  RH WIND       PRES   REMARKS
WINCHESTER*    CLEAR     45  25  45 CALM      30.07R
FRONT ROYAL*   FAIR      46  28  49 CALM      30.06R
LURAY*         FAIR      46  34  61 SE3       30.06R
NEW MARKET*    FAIR      41  31  68 CALM      30.06R
STAUNTON*      CLEAR     48  25  41 CALM      30.09R
WAYNESBORO*    FAIR      46  25  42 SW3       30.07R

$$

WVZ021-048>050-054>055-260000-
EASTERN WEST VIRGINIA PANHANDLE

CITY           SKY/WX    TMP DP  RH WIND       PRES   REMARKS
MARTINSBURG    CLEAR     44  26  49 CALM      30.07R
PETERSBURG*    NOT AVBL

$$

VAZ036>039-050-260000-
CENTRAL FOOTHILLS

CITY           SKY/WX    TMP DP  RH WIND       PRES   REMARKS
CHARLOTTESVILL MOCLDY    52  27  38 S3        30.06R
CULPEPER*      MOCLDY    46  41  81 CALM      30.08R
ORANGE*        CLOUDY    46  37  71 CALM      30.09R
GORDONSVILLE*  FAIR      47  37  67 CALM      30.08R
WARRENTON*     FAIR      45  43  91 CALM      30.07R

$$

VAZ055>057-260000-
NORTH AND CENTRAL PIEDMONT

CITY           SKY/WX    TMP DP  RH WIND       PRES   REMARKS
FREDERICKSBRG* CLOUDY    52  39  61 CALM      30.08R
STAFFORD*      CLOUDY    50  34  54 CALM      30.13R

$$

NCZ024-NYZ072-PAZ021-071-VAZ022-071-260000-
OTHER REGIONAL OBSERVATIONS

CITY           SKY/WX    TMP DP  RH WIND       PRES   REMARKS
NEW YORK CITY  MOCLDY    53  27  36 VRB5      30.06R
PHILADELPHIA   MOCLDY    51  30  44 SW8       30.08R
PITTSBURGH     PTCLDY    38  27  64 NW12      30.11R
ROANOKE        MOCLDY    51  25  36 CALM      30.09R
RICHMOND       CLOUDY    54  41  61 E5        30.09R
RALEIGH        LGT RAIN  54  40  59 N3        30.07F

$$

ANZ530>537-260000-
MARINE OBSERVATIONS

STATION/POSITION TIME  TEMP    WIND        PRES
                       AIR SEA DIR/SP/G
                 (UTC) (F)     (DEG/KT/KT) (MB)
THOMAS PT LIGHT  2300   50 48  150/  8/  8 1019.7R
BALT KEY BRIDGE  2300   51     120/  3/  4 1018.1S
COVE POINT       2300   51     180/  3/  4 1018.8R
LEWISETTA        2300   51 51  130/  4/  4 1018.4R
SOLOMONS ISLAND  2300      50                N/A
PINEY POINT      2300          110/  6/  6   N/A

$$




USA.gov is the U.S. government's official web portal to all federal, state and local government web resources and services.